User: anonymous   Login
Location: Alincthun
(50.7310°N, 1.8022°E)
Time: 21:39:18
(UTC+00:00)
Language:

BREEZE-M DEB (TANK) - Orbit

View from above orbital plane
View from above orbital plane
View from above satellite
View from above satellite

Ground track
Ground track

The orbit data is extracted from the following two-line orbital elements,

1 37845U 11059C   20157.85718788 +.00000743 +00000-0 +14082-3 0  9992
2 37845 049.7119 045.4527 4598362 128.9326 281.9403 06.29162463195938
Epoch (UTC): 05 June 2020 20:34:21
Eccentricity: 0.4598362
inclination: 49.7119°
perigee height: 317 km
apogee height: 11715 km
right ascension of ascending node: 45.4527°
argument of perigee: 128.9326°
revolutions per day: 6.29162463
mean anomaly at epoch: 281.9403°
orbit number at epoch: 19593

The dashed part of the orbit path shows where the satellite is in the earth's shadow,  

DLR